Time,TemperatureF,DewpointF,PressureIn,WindDirection,WindDirectionDegrees,WindSpeedMPH,WindSpeedGustMPH,Humidity,HourlyPrecipIn,Conditions,Clouds,dailyrainin,SolarRadiationWatts/m^2,SoftwareType,DateUTC
2013-01-03 00:02:00,-11.0,-17.0,-100.00,NNE,21,4.0,4.0,76,-99.99,,,-99.99,-0.100000,,2013-01-03 07:02:00,
2013-01-03 00:32:00,-12.0,-17.0,-100.00,NNE,28,6.0,6.0,76,-99.99,,,-99.99,-0.100000,,2013-01-03 07:32:00,
2013-01-03 00:42:00,-14.0,-20.0,-100.00,NE,36,6.0,7.0,74,-99.99,,,-99.99,-0.100000,,2013-01-03 07:42:00,
2013-01-03 01:11:00,-14.0,-19.0,-100.00,NE,49,5.0,5.0,75,-99.99,,,-99.99,-0.100000,,2013-01-03 08:11:00,
2013-01-03 01:22:00,-12.0,-17.0,-100.00,NE,56,3.0,3.0,77,-99.99,,,-99.99,-0.100000,,2013-01-03 08:22:00,
2013-01-03 01:32:00,-10.0,-15.0,-100.00,NE,51,4.0,4.0,78,-99.99,,,-99.99,-0.100000,,2013-01-03 08:32:00,
2013-01-03 01:52:00,-12.0,-17.0,-100.00,NNE,21,4.0,5.0,75,-99.99,,,-99.99,-0.100000,,2013-01-03 08:52:00,
2013-01-03 02:02:00,-13.0,-18.0,-100.00,NE,39,5.0,5.0,74,-99.99,,,-99.99,-0.100000,,2013-01-03 09:02:00,
2013-01-03 02:11:00,-14.0,-20.0,-100.00,North,358,3.0,3.0,75,-99.99,,,-99.99,-0.100000,,2013-01-03 09:11:00,
2013-01-03 02:22:00,-13.0,-20.0,-100.00,North,7,3.0,3.0,70,-99.99,,,-99.99,-7.700000,,2013-01-03 09:22:00,
2013-01-03 02:33:00,-12.0,-17.0,-100.00,North,8,4.0,5.0,76,-99.99,,,-99.99,-0.100000,,2013-01-03 09:33:00,
2013-01-03 02:42:00,-13.0,-18.0,-100.00,North,6,6.0,6.0,75,-99.99,,,-99.99,0.000000,,2013-01-03 09:42:00,
2013-01-03 03:02:00,-12.0,-17.0,-100.00,NNE,20,5.0,6.0,76,-99.99,,,-99.99,0.000000,,2013-01-03 10:02:00,
2013-01-03 03:11:00,-13.0,-18.0,-100.00,NE,54,6.0,7.0,76,-99.99,,,-99.99,-0.100000,,2013-01-03 10:11:00,
2013-01-03 03:22:00,-13.0,-19.0,-100.00,NNE,22,7.0,8.0,75,-99.99,,,-99.99,-0.100000,,2013-01-03 10:22:00,
2013-01-03 03:32:00,-14.0,-20.0,-100.00,North,9,7.0,8.0,75,-99.99,,,-99.99,-0.100000,,2013-01-03 10:32:00,
2013-01-03 03:52:00,-14.0,-20.0,-100.00,NNW,338,6.0,7.0,75,-99.99,,,-99.99,-0.100000,,2013-01-03 10:52:00,
2013-01-03 04:02:00,-14.0,-19.0,-100.00,NW,323,6.0,6.0,76,-99.99,,,-99.99,-0.100000,,2013-01-03 11:02:00,
2013-01-03 04:11:00,-13.0,-18.0,-100.00,NNW,348,5.0,5.0,77,-99.99,,,-99.99,-0.100000,,2013-01-03 11:11:00,
2013-01-03 04:22:00,-12.0,-17.0,-100.00,North,11,4.0,5.0,77,-99.99,,,-99.99,-0.100000,,2013-01-03 11:22:00,
2013-01-03 04:42:00,-12.0,-17.0,-100.00,North,353,4.0,4.0,77,-99.99,,,-99.99,0.000000,,2013-01-03 11:42:00,
2013-01-03 04:52:00,-12.0,-17.0,-100.00,NNE,15,2.0,2.0,76,-99.99,,,-99.99,-0.100000,,2013-01-03 11:52:00,
2013-01-03 05:02:00,-11.0,-16.0,-100.00,ENE,71,2.0,2.0,77,-99.99,,,-99.99,-0.100000,,2013-01-03 12:02:00,
2013-01-03 05:22:00,-11.0,-16.0,-100.00,North,2,3.0,4.0,77,-99.99,,,-99.99,0.000000,,2013-01-03 12:22:00,
2013-01-03 05:32:00,-11.0,-16.0,-100.00,North,10,4.0,4.0,77,-99.99,,,-99.99,-0.100000,,2013-01-03 12:32:00,
2013-01-03 05:42:00,-13.0,-18.0,-100.00,NNE,25,4.0,5.0,74,-99.99,,,-99.99,0.000000,,2013-01-03 12:42:00,
2013-01-03 06:02:00,-14.0,-20.0,-100.00,NNE,28,6.0,7.0,75,-99.99,,,-99.99,-0.100000,,2013-01-03 13:02:00,
2013-01-03 06:12:00,-15.0,-21.0,-100.00,NNE,29,7.0,7.0,74,-99.99,,,-99.99,0.000000,,2013-01-03 13:12:00,
2013-01-03 06:22:00,-14.0,-20.0,-100.00,NNE,27,5.0,6.0,75,-99.99,,,-99.99,0.000000,,2013-01-03 13:22:00,
2013-01-03 06:32:00,-13.0,-18.0,-100.00,NNE,27,4.0,6.0,76,-99.99,,,-99.99,-0.100000,,2013-01-03 13:32:00,
2013-01-03 06:52:00,-12.0,-17.0,-100.00,NNE,32,4.0,6.0,76,-99.99,,,-99.99,-0.100000,,2013-01-03 13:52:00,
2013-01-03 07:02:00,-12.0,-17.0,-100.00,NNE,24,4.0,4.0,77,-99.99,,,-99.99,-0.100000,,2013-01-03 14:02:00,
2013-01-03 07:11:00,-12.0,-17.0,-100.00,NNE,13,6.0,6.0,77,-99.99,,,-99.99,-0.100000,,2013-01-03 14:11:00,
2013-01-03 07:22:00,-12.0,-17.0,-100.00,NNE,33,4.0,5.0,76,-99.99,,,-99.99,-0.100000,,2013-01-03 14:22:00,
2013-01-03 07:32:00,-11.0,-16.0,-100.00,ENE,65,3.0,4.0,77,-99.99,,,-99.99,-0.100000,,2013-01-03 14:32:00,
2013-01-03 07:42:00,-11.0,-16.0,-100.00,NE,48,4.0,4.0,76,-99.99,,,-99.99,-0.100000,,2013-01-03 14:42:00,
2013-01-03 07:53:00,-11.0,-16.0,-100.00,NNE,17,3.0,4.0,77,-99.99,,,-99.99,0.000000,,2013-01-03 14:53:00,
2013-01-03 08:02:00,-11.0,-16.0,-100.00,North,4,4.0,4.0,77,-99.99,,,-99.99,0.300000,,2013-01-03 15:02:00,
2013-01-03 08:11:00,-11.0,-17.0,-100.00,North,8,6.0,6.0,75,-99.99,,,-99.99,1.500000,,2013-01-03 15:11:00,
2013-01-03 08:22:00,-13.0,-18.0,-100.00,North,4,7.0,7.0,75,-99.99,,,-99.99,4.100000,,2013-01-03 15:22:00,
2013-01-03 08:33:00,-12.0,-17.0,-100.00,North,4,7.0,7.0,76,-99.99,,,-99.99,8.200000,,2013-01-03 15:33:00,
2013-01-03 08:42:00,-12.0,-18.0,-100.00,NNE,19,7.0,8.0,75,-99.99,,,-99.99,21.200001,,2013-01-03 15:42:00,
2013-01-03 08:52:00,-14.0,-19.0,-100.00,NNE,19,8.0,9.0,75,-99.99,,,-99.99,36.500000,,2013-01-03 15:52:00,
2013-01-03 09:11:00,-12.0,-16.0,-100.00,North,4,8.0,8.0,78,-99.99,,,-99.99,77.800003,,2013-01-03 16:11:00,
2013-01-03 09:22:00,-10.0,-15.0,-100.00,NNE,17,7.0,8.0,77,-99.99,,,-99.99,106.599998,,2013-01-03 16:22:00,
2013-01-03 09:32:00,-10.0,-15.0,-100.00,NNE,19,7.0,7.0,77,-99.99,,,-99.99,136.199997,,2013-01-03 16:32:00,
2013-01-03 09:42:00,-10.0,-15.0,-100.00,NNE,25,6.0,7.0,77,-99.99,,,-99.99,167.000000,,2013-01-03 16:42:00,
2013-01-03 09:52:00,-9.0,-14.0,-100.00,North,10,11.0,12.0,79,-99.99,,,-99.99,199.800003,,2013-01-03 16:52:00,
2013-01-03 10:02:00,-7.0,-11.0,-100.00,NNE,12,8.0,9.0,80,-99.99,,,-99.99,223.800003,,2013-01-03 17:02:00,
2013-01-03 10:12:00,-7.0,-11.0,-100.00,NNE,17,6.0,7.0,79,-99.99,,,-99.99,243.600006,,2013-01-03 17:12:00,
2013-01-03 10:32:00,-5.0,-10.0,-100.00,NNE,23,3.0,4.0,80,-99.99,,,-99.99,272.399994,,2013-01-03 17:32:00,
2013-01-03 10:42:00,-5.0,-9.0,-100.00,NNE,23,2.0,3.0,80,-99.99,,,-99.99,283.700012,,2013-01-03 17:42:00,
2013-01-03 10:52:00,-4.0,-8.0,-100.00,North,9,4.0,4.0,81,-99.99,,,-99.99,297.500000,,2013-01-03 17:52:00,
2013-01-03 11:02:00,-3.0,-7.0,-100.00,NNE,20,3.0,3.0,81,-99.99,,,-99.99,310.100006,,2013-01-03 18:02:00,
2013-01-03 11:12:00,-2.0,-6.0,-100.00,NNE,27,4.0,4.0,81,-99.99,,,-99.99,323.299988,,2013-01-03 18:12:00,
2013-01-03 11:22:00,-1.0,-5.0,-100.00,NNE,23,4.0,4.0,82,-99.99,,,-99.99,338.700012,,2013-01-03 18:22:00,
2013-01-03 11:32:00,0.0,-4.0,-100.00,NNE,25,4.0,5.0,83,-99.99,,,-99.99,354.899994,,2013-01-03 18:32:00,
2013-01-03 11:42:00,1.0,-3.0,-100.00,NNE,13,3.0,4.0,83,-99.99,,,-99.99,368.700012,,2013-01-03 18:42:00,
2013-01-03 12:02:00,4.0,0.0,-100.00,NNE,31,5.0,6.0,82,-99.99,,,-99.99,418.500000,,2013-01-03 19:02:00,
2013-01-03 12:12:00,4.0,0.0,-100.00,NNE,31,5.0,6.0,81,-99.99,,,-99.99,426.200012,,2013-01-03 19:12:00,
2013-01-03 13:02:00,7.0,2.0,-100.00,NNE,30,5.0,6.0,77,-99.99,,,-99.99,438.000000,,2013-01-03 20:02:00,
2013-01-03 13:12:00,7.0,2.0,-100.00,NNE,16,6.0,6.0,77,-99.99,,,-99.99,426.500000,,2013-01-03 20:12:00,
2013-01-03 13:22:00,7.0,2.0,-100.00,North,9,6.0,7.0,78,-99.99,,,-99.99,435.600006,,2013-01-03 20:22:00,
2013-01-03 13:33:00,7.0,2.0,-100.00,NNE,13,6.0,7.0,78,-99.99,,,-99.99,430.600006,,2013-01-03 20:33:00,
2013-01-03 13:42:00,8.0,2.0,-100.00,NNE,21,7.0,8.0,77,-99.99,,,-99.99,423.299988,,2013-01-03 20:42:00,
2013-01-03 13:53:00,8.0,2.0,-100.00,NNE,20,6.0,8.0,76,-99.99,,,-99.99,416.799988,,2013-01-03 20:53:00,
2013-01-03 14:02:00,8.0,3.0,-100.00,North,9,6.0,7.0,77,-99.99,,,-99.99,409.399994,,2013-01-03 21:02:00,
2013-01-03 14:12:00,9.0,3.0,-100.00,NNE,12,6.0,7.0,77,-99.99,,,-99.99,396.100006,,2013-01-03 21:12:00,
2013-01-03 14:22:00,9.0,3.0,-100.00,NNE,13,7.0,8.0,77,-99.99,,,-99.99,391.000000,,2013-01-03 21:22:00,
2013-01-03 14:34:00,9.0,4.0,-100.00,NNE,13,6.0,7.0,76,-99.99,,,-99.99,353.899994,,2013-01-03 21:34:00,
2013-01-03 14:44:00,9.0,4.0,-100.00,NNE,15,7.0,8.0,77,-99.99,,,-99.99,366.600006,,2013-01-03 21:44:00,
2013-01-03 14:52:00,10.0,4.0,-100.00,NNE,23,10.0,10.0,75,-99.99,,,-99.99,347.200012,,2013-01-03 21:52:00,
2013-01-03 15:02:00,10.0,4.0,-100.00,NNE,19,10.0,10.0,75,-99.99,,,-99.99,319.399994,,2013-01-03 22:02:00,
2013-01-03 15:11:00,10.0,4.0,-100.00,NNE,23,8.0,9.0,74,-99.99,,,-99.99,283.700012,,2013-01-03 22:11:00,
2013-01-03 15:22:00,9.0,3.0,-100.00,NNE,15,7.0,8.0,75,-99.99,,,-99.99,279.700012,,2013-01-03 22:22:00,
2013-01-03 15:32:00,10.0,4.0,-100.00,NNE,25,8.0,8.0,75,-99.99,,,-99.99,246.500000,,2013-01-03 22:32:00,
2013-01-03 16:02:00,8.0,2.0,-100.00,NNE,26,8.0,8.0,75,-99.99,,,-99.99,189.500000,,2013-01-03 23:02:00,
2013-01-03 16:12:00,9.0,2.0,-100.00,NNE,20,7.0,8.0,75,-99.99,,,-99.99,151.199997,,2013-01-03 23:12:00,
2013-01-03 16:22:00,7.0,1.0,-100.00,NNE,21,8.0,8.0,76,-99.99,,,-99.99,146.899994,,2013-01-03 23:22:00,
2013-01-03 16:32:00,7.0,1.0,-100.00,NNE,17,9.0,10.0,75,-99.99,,,-99.99,121.900002,,2013-01-03 23:32:00,
2013-01-03 16:42:00,6.0,1.0,-100.00,NNE,15,10.0,11.0,76,-99.99,,,-99.99,87.800003,,2013-01-03 23:42:00,
2013-01-03 16:52:00,6.0,0.0,-100.00,NNE,16,9.0,10.0,77,-99.99,,,-99.99,54.799999,,2013-01-03 23:52:00,
2013-01-03 17:02:00,5.0,-1.0,-100.00,NNE,22,11.0,11.0,77,-99.99,,,-99.99,39.000000,,2013-01-04 00:02:00,
2013-01-03 17:12:00,4.0,-1.0,-100.00,NNE,26,10.0,11.0,78,-99.99,,,-99.99,25.100000,,2013-01-04 00:12:00,
2013-01-03 17:22:00,5.0,0.0,-100.00,NNE,24,7.0,9.0,78,-99.99,,,-99.99,10.700000,,2013-01-04 00:22:00,
2013-01-03 17:32:00,4.0,-1.0,-100.00,NNE,22,8.0,9.0,78,-99.99,,,-99.99,4.800000,,2013-01-04 00:32:00,
2013-01-03 17:42:00,3.0,-2.0,-100.00,NNE,25,10.0,10.0,78,-99.99,,,-99.99,2.100000,,2013-01-04 00:42:00,
2013-01-03 17:52:00,1.0,-4.0,-100.00,NNE,31,10.0,11.0,79,-99.99,,,-99.99,0.200000,,2013-01-04 00:52:00,
2013-01-03 18:02:00,-1.0,-6.0,-100.00,NE,37,12.0,13.0,79,-99.99,,,-99.99,-0.100000,,2013-01-04 01:02:00,
2013-01-03 18:11:00,-1.0,-5.0,-100.00,NNE,32,11.0,12.0,80,-99.99,,,-99.99,-0.100000,,2013-01-04 01:11:00,
2013-01-03 18:22:00,-1.0,-6.0,-100.00,NNE,30,12.0,12.0,80,-99.99,,,-99.99,-0.100000,,2013-01-04 01:22:00,
2013-01-03 18:32:00,0.0,-4.0,-100.00,NE,35,13.0,14.0,81,-99.99,,,-99.99,-0.100000,,2013-01-04 01:32:00,
2013-01-03 18:42:00,0.0,-4.0,-100.00,NNE,31,12.0,12.0,80,-99.99,,,-99.99,-0.100000,,2013-01-04 01:42:00,
2013-01-03 18:52:00,0.0,-5.0,-100.00,NNE,32,12.0,13.0,79,-99.99,,,-99.99,-0.100000,,2013-01-04 01:52:00,
2013-01-03 19:02:00,-1.0,-6.0,-100.00,NE,34,11.0,12.0,80,-99.99,,,-99.99,-0.100000,,2013-01-04 02:02:00,
2013-01-03 19:11:00,-1.0,-5.0,-100.00,NNE,33,11.0,12.0,81,-99.99,,,-99.99,-0.100000,,2013-01-04 02:11:00,
2013-01-03 19:22:00,-1.0,-5.0,-100.00,NE,36,13.0,13.0,81,-99.99,,,-99.99,-0.100000,,2013-01-04 02:22:00,
2013-01-03 19:32:00,-2.0,-7.0,-100.00,NE,34,11.0,12.0,81,-99.99,,,-99.99,-0.100000,,2013-01-04 02:32:00,
2013-01-03 19:42:00,-1.0,-5.0,-100.00,NNE,16,11.0,11.0,83,-99.99,,,-99.99,-0.100000,,2013-01-04 02:42:00,
2013-01-03 19:52:00,-1.0,-5.0,-100.00,NNE,14,12.0,13.0,81,-99.99,,,-99.99,-0.100000,,2013-01-04 02:52:00,
2013-01-03 20:02:00,-3.0,-8.0,-100.00,NNE,21,11.0,12.0,80,-99.99,,,-99.99,0.000000,,2013-01-04 03:02:00,
2013-01-03 20:11:00,-2.0,-6.0,-100.00,NNE,24,13.0,14.0,82,-99.99,,,-99.99,-0.100000,,2013-01-04 03:11:00,
2013-01-03 20:22:00,-1.0,-6.0,-100.00,NNE,21,12.0,12.0,80,-99.99,,,-99.99,-0.100000,,2013-01-04 03:22:00,
2013-01-03 20:32:00,-2.0,-7.0,-100.00,NNE,20,10.0,11.0,80,-99.99,,,-99.99,-0.100000,,2013-01-04 03:32:00,
2013-01-03 20:52:00,-3.0,-7.0,-100.00,North,4,8.0,9.0,80,-99.99,,,-99.99,-0.100000,,2013-01-04 03:52:00,
2013-01-03 21:02:00,-3.0,-7.0,-100.00,North,2,7.0,8.0,82,-99.99,,,-99.99,-0.100000,,2013-01-04 04:02:00,
2013-01-03 21:11:00,-2.0,-7.0,-100.00,North,353,6.0,7.0,80,-99.99,,,-99.99,0.000000,,2013-01-04 04:11:00,
2013-01-03 21:22:00,-4.0,-9.0,-100.00,NNW,336,7.0,9.0,80,-99.99,,,-99.99,-0.100000,,2013-01-04 04:22:00,
2013-01-03 21:32:00,-4.0,-8.0,-100.00,NNW,342,8.0,10.0,81,-99.99,,,-99.99,0.000000,,2013-01-04 04:32:00,
2013-01-03 21:42:00,-5.0,-9.0,-100.00,North,1,11.0,12.0,80,-99.99,,,-99.99,0.000000,,2013-01-04 04:42:00,
2013-01-03 21:52:00,-4.0,-9.0,-100.00,North,8,12.0,13.0,81,-99.99,,,-99.99,0.000000,,2013-01-04 04:52:00,
2013-01-03 22:03:00,-2.0,-7.0,-100.00,NNE,20,12.0,12.0,78,-99.99,,,-99.99,-0.100000,,2013-01-04 05:03:00,
2013-01-03 22:12:00,-4.0,-9.0,-100.00,NNE,23,11.0,12.0,78,-99.99,,,-99.99,-0.100000,,2013-01-04 05:12:00,
2013-01-03 22:22:00,-3.0,-8.0,-100.00,NNE,24,11.0,11.0,79,-99.99,,,-99.99,-0.100000,,2013-01-04 05:22:00,
2013-01-03 22:32:00,-5.0,-10.0,-100.00,NNE,22,11.0,11.0,79,-99.99,,,-99.99,-0.100000,,2013-01-04 05:32:00,
2013-01-03 22:42:00,-5.0,-10.0,-100.00,NNE,21,11.0,11.0,79,-99.99,,,-99.99,0.000000,,2013-01-04 05:42:00,
2013-01-03 22:52:00,-4.0,-9.0,-100.00,NNE,15,11.0,12.0,80,-99.99,,,-99.99,-0.100000,,2013-01-04 05:52:00,
2013-01-03 23:02:00,-4.0,-9.0,-100.00,NNE,13,11.0,12.0,80,-99.99,,,-99.99,-0.100000,,2013-01-04 06:02:00,
2013-01-03 23:11:00,-3.0,-7.0,-100.00,North,10,8.0,8.0,79,-99.99,,,-99.99,-0.100000,,2013-01-04 06:11:00,
2013-01-03 23:22:00,-5.0,-11.0,-100.00,NNE,22,8.0,9.0,77,-99.99,,,-99.99,-0.100000,,2013-01-04 06:22:00,
2013-01-03 23:32:00,-6.0,-10.0,-100.00,NNE,27,6.0,7.0,81,-99.99,,,-99.99,-0.100000,,2013-01-04 06:32:00,
2013-01-03 23:42:00,-7.0,-12.0,-100.00,NNE,31,9.0,9.0,79,-99.99,,,-99.99,-0.100000,,2013-01-04 06:42:00,
2013-01-03 23:52:00,-6.0,-10.0,-100.00,NNE,28,8.0,9.0,82,-99.99,,,-99.99,-0.100000,,2013-01-04 06:52:00,